owner,sensor,date,latitude,longitude,air_temperature,qcFlag 
COMPS,ioos:station:USF.COMPS:ANC:1,2012-01-01T00:00:00Z,28.1930,-82.7890,18.7,1111122 
COMPS,ioos:station:USF.COMPS:ANC:1,2012-01-01T00:06:00Z,28.1930,-82.7890,18.12,1111122 
COMPS,ioos:station:USF.COMPS:ANC:1,2012-01-01T00:12:00Z,28.1930,-82.7890,17.98,1111122 
COMPS,ioos:station:USF.COMPS:ANC:1,2012-01-01T00:18:00Z,28.1930,-82.7890,17.65,1111122 
COMPS,ioos:station:USF.COMPS:ANC:1,2012-01-01T00:24:00Z,28.1930,-82.7890,17.45,1111122 
COMPS,ioos:station:USF.COMPS:ANC:1,2012-01-01T00:30:00Z,28.1930,-82.7890,17.31,1111122 
COMPS,ioos:station:USF.COMPS:ANC:1,2012-01-01T00:36:00Z,28.1930,-82.7890,17.16,1111122 
COMPS,ioos:station:USF.COMPS:ANC:1,2012-01-01T00:42:00Z,28.1930,-82.7890,17.01,1111122 
COMPS,ioos:station:USF.COMPS:ANC:1,2012-01-01T00:48:00Z,28.1930,-82.7890,17.05,1111122 
COMPS,ioos:station:USF.COMPS:ANC:1,2012-01-01T00:54:00Z,28.1930,-82.7890,17.12,1111122 
COMPS,ioos:station:USF.COMPS:ANC:1,2012-01-01T01:00:00Z,28.1930,-82.7890,17.1,1111122 
COMPS,ioos:station:USF.COMPS:ANC:1,2012-01-01T01:06:00Z,28.1930,-82.7890,16.7,1111122 
COMPS,ioos:station:USF.COMPS:ANC:1,2012-01-01T01:12:00Z,28.1930,-82.7890,16.63,1111122 
COMPS,ioos:station:USF.COMPS:ANC:1,2012-01-01T01:18:00Z,28.1930,-82.7890,16.48,1111122 
COMPS,ioos:station:USF.COMPS:ANC:1,2012-01-01T01:24:00Z,28.1930,-82.7890,16.57,1111122 
COMPS,ioos:station:USF.COMPS:ANC:1,2012-01-01T01:30:00Z,28.1930,-82.7890,16.7,1111122 
COMPS,ioos:station:USF.COMPS:ANC:1,2012-01-01T01:36:00Z,28.1930,-82.7890,16.73,1111122 
COMPS,ioos:station:USF.COMPS:ANC:1,2012-01-01T01:42:00Z,28.1930,-82.7890,16.87,1111122 
COMPS,ioos:station:USF.COMPS:ANC:1,2012-01-01T01:48:00Z,28.1930,-82.7890,17.4,1111122 
COMPS,ioos:station:USF.COMPS:ANC:1,2012-01-01T01:54:00Z,28.1930,-82.7890,16.96,1111122 
COMPS,ioos:station:USF.COMPS:ANC:1,2012-01-01T02:00:00Z,28.1930,-82.7890,17.0,1111122 
COMPS,ioos:station:USF.COMPS:ANC:1,2012-01-01T02:06:00Z,28.1930,-82.7890,17.24,1111122 
COMPS,ioos:station:USF.COMPS:ANC:1,2012-01-01T02:12:00Z,28.1930,-82.7890,17.44,1111122 
COMPS,ioos:station:USF.COMPS:ANC:1,2012-01-01T02:18:00Z,28.1930,-82.7890,17.56,1111122 
COMPS,ioos:station:USF.COMPS:ANC:1,2012-01-01T02:24:00Z,28.1930,-82.7890,17.68,1111122 
COMPS,ioos:station:USF.COMPS:ANC:1,2012-01-01T02:30:00Z,28.1930,-82.7890,17.8,1111122 
COMPS,ioos:station:USF.COMPS:ANC:1,2012-01-01T02:36:00Z,28.1930,-82.7890,17.58,1111122 
COMPS,ioos:station:USF.COMPS:ANC:1,2012-01-01T02:42:00Z,28.1930,-82.7890,17.19,1111122 
COMPS,ioos:station:USF.COMPS:ANC:1,2012-01-01T02:48:00Z,28.1930,-82.7890,16.67,1111122 
COMPS,ioos:station:USF.COMPS:ANC:1,2012-01-01T02:54:00Z,28.1930,-82.7890,16.39,1111122 
COMPS,ioos:station:USF.COMPS:ANC:1,2012-01-01T03:00:00Z,28.1930,-82.7890,16.4,1111122 
COMPS,ioos:station:USF.COMPS:ANC:1,2012-01-01T03:06:00Z,28.1930,-82.7890,16.23,1111122 
COMPS,ioos:station:USF.COMPS:ANC:1,2012-01-01T03:12:00Z,28.1930,-82.7890,16.43,1111122 
COMPS,ioos:station:USF.COMPS:ANC:1,2012-01-01T03:18:00Z,28.1930,-82.7890,16.59,1111122 
COMPS,ioos:station:USF.COMPS:ANC:1,2012-01-01T03:24:00Z,28.1930,-82.7890,16.28,1111122 
COMPS,ioos:station:USF.COMPS:ANC:1,2012-01-01T03:30:00Z,28.1930,-82.7890,15.8,1111122 
COMPS,ioos:station:USF.COMPS:ANC:1,2012-01-01T03:36:00Z,28.1930,-82.7890,16.1,1111122 
COMPS,ioos:station:USF.COMPS:ANC:1,2012-01-01T03:42:00Z,28.1930,-82.7890,15.73,1111122 
COMPS,ioos:station:USF.COMPS:ANC:1,2012-01-01T03:48:00Z,28.1930,-82.7890,16.03,1111122 
COMPS,ioos:station:USF.COMPS:ANC:1,2012-01-01T03:54:00Z,28.1930,-82.7890,15.87,1111122 
COMPS,ioos:station:USF.COMPS:ANC:1,2012-01-01T04:00:00Z,28.1930,-82.7890,15.9,1111122 
COMPS,ioos:station:USF.COMPS:ANC:1,2012-01-01T04:06:00Z,28.1930,-82.7890,15.9,1111122 
COMPS,ioos:station:USF.COMPS:ANC:1,2012-01-01T04:12:00Z,28.1930,-82.7890,15.69,1111122 
COMPS,ioos:station:USF.COMPS:ANC:1,2012-01-01T04:18:00Z,28.1930,-82.7890,15.65,1111122 
COMPS,ioos:station:USF.COMPS:ANC:1,2012-01-01T04:24:00Z,28.1930,-82.7890,15.85,1111122 
COMPS,ioos:station:USF.COMPS:ANC:1,2012-01-01T04:30:00Z,28.1930,-82.7890,16.27,1111122 
COMPS,ioos:station:USF.COMPS:ANC:1,2012-01-01T04:36:00Z,28.1930,-82.7890,16.44,1111122 
COMPS,ioos:station:USF.COMPS:ANC:1,2012-01-01T04:42:00Z,28.1930,-82.7890,16.26,1111122 
COMPS,ioos:station:USF.COMPS:ANC:1,2012-01-01T04:48:00Z,28.1930,-82.7890,15.75,1111122 
COMPS,ioos:station:USF.COMPS:ANC:1,2012-01-01T04:54:00Z,28.1930,-82.7890,16.05,1111122 
COMPS,ioos:station:USF.COMPS:ANC:1,2012-01-01T05:00:00Z,28.1930,-82.7890,16.1,1111122 
COMPS,ioos:station:USF.COMPS:ANC:1,2012-01-01T05:06:00Z,28.1930,-82.7890,16.14,1111122 
COMPS,ioos:station:USF.COMPS:ANC:1,2012-01-01T05:12:00Z,28.1930,-82.7890,15.65,1111122 
COMPS,ioos:station:USF.COMPS:ANC:1,2012-01-01T05:18:00Z,28.1930,-82.7890,15.8,1111122 
COMPS,ioos:station:USF.COMPS:ANC:1,2012-01-01T05:24:00Z,28.1930,-82.7890,14.87,1111122 
COMPS,ioos:station:USF.COMPS:ANC:1,2012-01-01T05:30:00Z,28.1930,-82.7890,15.72,1111122 
COMPS,ioos:station:USF.COMPS:ANC:1,2012-01-01T05:36:00Z,28.1930,-82.7890,16.12,1111122 
COMPS,ioos:station:USF.COMPS:ANC:1,2012-01-01T05:42:00Z,28.1930,-82.7890,16.3,1111122 
COMPS,ioos:station:USF.COMPS:ANC:1,2012-01-01T05:48:00Z,28.1930,-82.7890,16.6,1111122 
COMPS,ioos:station:USF.COMPS:ANC:1,2012-01-01T05:54:00Z,28.1930,-82.7890,16.53,1111122 
COMPS,ioos:station:USF.COMPS:ANC:1,2012-01-01T06:00:00Z,28.1930,-82.7890,16.5,1111122 
COMPS,ioos:station:USF.COMPS:ANC:1,2012-01-01T06:06:00Z,28.1930,-82.7890,16.75,1111122 
COMPS,ioos:station:USF.COMPS:ANC:1,2012-01-01T06:12:00Z,28.1930,-82.7890,16.65,1111122 
COMPS,ioos:station:USF.COMPS:ANC:1,2012-01-01T06:18:00Z,28.1930,-82.7890,16.85,1111122 
COMPS,ioos:station:USF.COMPS:ANC:1,2012-01-01T06:24:00Z,28.1930,-82.7890,15.99,1111122 
COMPS,ioos:station:USF.COMPS:ANC:1,2012-01-01T06:30:00Z,28.1930,-82.7890,14.76,1111122 
COMPS,ioos:station:USF.COMPS:ANC:1,2012-01-01T06:36:00Z,28.1930,-82.7890,14.33,1111122 
COMPS,ioos:station:USF.COMPS:ANC:1,2012-01-01T06:42:00Z,28.1930,-82.7890,14.49,1111122 
COMPS,ioos:station:USF.COMPS:ANC:1,2012-01-01T06:48:00Z,28.1930,-82.7890,14.71,1111122 
COMPS,ioos:station:USF.COMPS:ANC:1,2012-01-01T06:54:00Z,28.1930,-82.7890,14.72,1111122 
COMPS,ioos:station:USF.COMPS:ANC:1,2012-01-01T07:00:00Z,28.1930,-82.7890,14.7,1111122 
COMPS,ioos:station:USF.COMPS:ANC:1,2012-01-01T07:06:00Z,28.1930,-82.7890,14.99,1111122 
COMPS,ioos:station:USF.COMPS:ANC:1,2012-01-01T07:12:00Z,28.1930,-82.7890,15.44,1111122 
COMPS,ioos:station:USF.COMPS:ANC:1,2012-01-01T07:18:00Z,28.1930,-82.7890,15.84,1111122 
COMPS,ioos:station:USF.COMPS:ANC:1,2012-01-01T07:24:00Z,28.1930,-82.7890,16.15,1111122 
COMPS,ioos:station:USF.COMPS:ANC:1,2012-01-01T07:30:00Z,28.1930,-82.7890,15.46,1111122 
COMPS,ioos:station:USF.COMPS:ANC:1,2012-01-01T07:36:00Z,28.1930,-82.7890,15.77,1111122 
COMPS,ioos:station:USF.COMPS:ANC:1,2012-01-01T07:42:00Z,28.1930,-82.7890,15.61,1111122 
COMPS,ioos:station:USF.COMPS:ANC:1,2012-01-01T07:48:00Z,28.1930,-82.7890,14.98,1111122 
COMPS,ioos:station:USF.COMPS:ANC:1,2012-01-01T07:54:00Z,28.1930,-82.7890,14.0,1111122 
COMPS,ioos:station:USF.COMPS:ANC:1,2012-01-01T08:00:00Z,28.1930,-82.7890,14.0,1111122 
COMPS,ioos:station:USF.COMPS:ANC:1,2012-01-01T08:06:00Z,28.1930,-82.7890,14.41,1111122 
COMPS,ioos:station:USF.COMPS:ANC:1,2012-01-01T08:12:00Z,28.1930,-82.7890,14.34,1111122 
COMPS,ioos:station:USF.COMPS:ANC:1,2012-01-01T08:18:00Z,28.1930,-82.7890,14.05,1111122 
COMPS,ioos:station:USF.COMPS:ANC:1,2012-01-01T08:24:00Z,28.1930,-82.7890,13.7,1111122 
COMPS,ioos:station:USF.COMPS:ANC:1,2012-01-01T08:30:00Z,28.1930,-82.7890,13.8,1111122 
COMPS,ioos:station:USF.COMPS:ANC:1,2012-01-01T08:36:00Z,28.1930,-82.7890,14.81,1111122 
COMPS,ioos:station:USF.COMPS:ANC:1,2012-01-01T08:42:00Z,28.1930,-82.7890,14.53,1111122 
COMPS,ioos:station:USF.COMPS:ANC:1,2012-01-01T08:48:00Z,28.1930,-82.7890,14.47,1111122 
COMPS,ioos:station:USF.COMPS:ANC:1,2012-01-01T08:54:00Z,28.1930,-82.7890,14.8,1111122 
COMPS,ioos:station:USF.COMPS:ANC:1,2012-01-01T09:00:00Z,28.1930,-82.7890,14.8,1111122 
COMPS,ioos:station:USF.COMPS:ANC:1,2012-01-01T09:06:00Z,28.1930,-82.7890,14.76,1111122 
COMPS,ioos:station:USF.COMPS:ANC:1,2012-01-01T09:12:00Z,28.1930,-82.7890,14.47,1111122 
COMPS,ioos:station:USF.COMPS:ANC:1,2012-01-01T09:18:00Z,28.1930,-82.7890,13.78,1111122 
COMPS,ioos:station:USF.COMPS:ANC:1,2012-01-01T09:24:00Z,28.1930,-82.7890,13.81,1111122 
COMPS,ioos:station:USF.COMPS:ANC:1,2012-01-01T09:30:00Z,28.1930,-82.7890,13.63,1111122 
COMPS,ioos:station:USF.COMPS:ANC:1,2012-01-01T09:36:00Z,28.1930,-82.7890,13.71,1111122 
COMPS,ioos:station:USF.COMPS:ANC:1,2012-01-01T09:42:00Z,28.1930,-82.7890,13.72,1111122 
COMPS,ioos:station:USF.COMPS:ANC:1,2012-01-01T09:48:00Z,28.1930,-82.7890,13.68,1111122 
COMPS,ioos:station:USF.COMPS:ANC:1,2012-01-01T09:54:00Z,28.1930,-82.7890,13.78,1111122 
COMPS,ioos:station:USF.COMPS:ANC:1,2012-01-01T10:00:00Z,28.1930,-82.7890,13.8,1111122 
COMPS,ioos:station:USF.COMPS:ANC:1,2012-01-01T10:06:00Z,28.1930,-82.7890,13.95,1111122 
COMPS,ioos:station:USF.COMPS:ANC:1,2012-01-01T10:12:00Z,28.1930,-82.7890,13.58,1111122 
COMPS,ioos:station:USF.COMPS:ANC:1,2012-01-01T10:18:00Z,28.1930,-82.7890,14.3,1111122 
COMPS,ioos:station:USF.COMPS:ANC:1,2012-01-01T10:24:00Z,28.1930,-82.7890,15.15,1111122 
COMPS,ioos:station:USF.COMPS:ANC:1,2012-01-01T10:30:00Z,28.1930,-82.7890,15.11,1111122 
COMPS,ioos:station:USF.COMPS:ANC:1,2012-01-01T10:36:00Z,28.1930,-82.7890,14.84,1111122 
COMPS,ioos:station:USF.COMPS:ANC:1,2012-01-01T10:42:00Z,28.1930,-82.7890,14.64,1111122 
COMPS,ioos:station:USF.COMPS:ANC:1,2012-01-01T10:48:00Z,28.1930,-82.7890,14.42,1111122 
COMPS,ioos:station:USF.COMPS:ANC:1,2012-01-01T10:54:00Z,28.1930,-82.7890,14.48,1111122 
COMPS,ioos:station:USF.COMPS:ANC:1,2012-01-01T11:00:00Z,28.1930,-82.7890,14.5,1111122 
COMPS,ioos:station:USF.COMPS:ANC:1,2012-01-01T11:06:00Z,28.1930,-82.7890,13.95,1111122 
COMPS,ioos:station:USF.COMPS:ANC:1,2012-01-01T11:12:00Z,28.1930,-82.7890,13.35,1111122 
COMPS,ioos:station:USF.COMPS:ANC:1,2012-01-01T11:18:00Z,28.1930,-82.7890,13.3,1111122 
COMPS,ioos:station:USF.COMPS:ANC:1,2012-01-01T11:24:00Z,28.1930,-82.7890,13.96,1111122 
COMPS,ioos:station:USF.COMPS:ANC:1,2012-01-01T11:30:00Z,28.1930,-82.7890,13.64,1111122 
COMPS,ioos:station:USF.COMPS:ANC:1,2012-01-01T11:36:00Z,28.1930,-82.7890,14.05,1111122 
COMPS,ioos:station:USF.COMPS:ANC:1,2012-01-01T11:42:00Z,28.1930,-82.7890,13.98,1111122 
COMPS,ioos:station:USF.COMPS:ANC:1,2012-01-01T11:48:00Z,28.1930,-82.7890,13.86,1111122 
COMPS,ioos:station:USF.COMPS:ANC:1,2012-01-01T11:54:00Z,28.1930,-82.7890,13.76,1111122 
COMPS,ioos:station:USF.COMPS:ANC:1,2012-01-01T12:00:00Z,28.1930,-82.7890,13.8,1111122 
COMPS,ioos:station:USF.COMPS:ANC:1,2012-01-01T12:06:00Z,28.1930,-82.7890,13.41,1111122 
COMPS,ioos:station:USF.COMPS:ANC:1,2012-01-01T12:12:00Z,28.1930,-82.7890,13.37,1111122 
COMPS,ioos:station:USF.COMPS:ANC:1,2012-01-01T12:18:00Z,28.1930,-82.7890,13.29,1111122 
COMPS,ioos:station:USF.COMPS:ANC:1,2012-01-01T12:24:00Z,28.1930,-82.7890,13.25,1111122 
COMPS,ioos:station:USF.COMPS:ANC:1,2012-01-01T12:30:00Z,28.1930,-82.7890,13.26,1111122 
COMPS,ioos:station:USF.COMPS:ANC:1,2012-01-01T12:36:00Z,28.1930,-82.7890,13.38,1111122 
COMPS,ioos:station:USF.COMPS:ANC:1,2012-01-01T12:42:00Z,28.1930,-82.7890,13.42,1111122 
COMPS,ioos:station:USF.COMPS:ANC:1,2012-01-01T12:48:00Z,28.1930,-82.7890,13.51,1111122 
COMPS,ioos:station:USF.COMPS:ANC:1,2012-01-01T12:54:00Z,28.1930,-82.7890,13.62,1111122 
COMPS,ioos:station:USF.COMPS:ANC:1,2012-01-01T13:00:00Z,28.1930,-82.7890,13.6,1111122 
COMPS,ioos:station:USF.COMPS:ANC:1,2012-01-01T13:06:00Z,28.1930,-82.7890,13.47,1111122 
COMPS,ioos:station:USF.COMPS:ANC:1,2012-01-01T13:12:00Z,28.1930,-82.7890,13.47,1111122 
COMPS,ioos:station:USF.COMPS:ANC:1,2012-01-01T13:18:00Z,28.1930,-82.7890,13.53,1111122 
COMPS,ioos:station:USF.COMPS:ANC:1,2012-01-01T13:24:00Z,28.1930,-82.7890,13.56,1111122 
COMPS,ioos:station:USF.COMPS:ANC:1,2012-01-01T13:30:00Z,28.1930,-82.7890,13.77,1111122 
COMPS,ioos:station:USF.COMPS:ANC:1,2012-01-01T13:36:00Z,28.1930,-82.7890,14.19,1111122 
COMPS,ioos:station:USF.COMPS:ANC:1,2012-01-01T13:42:00Z,28.1930,-82.7890,14.72,1111122 
COMPS,ioos:station:USF.COMPS:ANC:1,2012-01-01T13:48:00Z,28.1930,-82.7890,15.02,1111122 
COMPS,ioos:station:USF.COMPS:ANC:1,2012-01-01T13:54:00Z,28.1930,-82.7890,15.43,1111122 
COMPS,ioos:station:USF.COMPS:ANC:1,2012-01-01T14:00:00Z,28.1930,-82.7890,15.4,1111122 
COMPS,ioos:station:USF.COMPS:ANC:1,2012-01-01T14:06:00Z,28.1930,-82.7890,16.31,1111122 
COMPS,ioos:station:USF.COMPS:ANC:1,2012-01-01T14:12:00Z,28.1930,-82.7890,16.7,1111122 
COMPS,ioos:station:USF.COMPS:ANC:1,2012-01-01T14:18:00Z,28.1930,-82.7890,17.09,1111122 
COMPS,ioos:station:USF.COMPS:ANC:1,2012-01-01T14:24:00Z,28.1930,-82.7890,17.57,1111122 
COMPS,ioos:station:USF.COMPS:ANC:1,2012-01-01T14:30:00Z,28.1930,-82.7890,18.01,1111122 
COMPS,ioos:station:USF.COMPS:ANC:1,2012-01-01T14:36:00Z,28.1930,-82.7890,18.38,1111122 
COMPS,ioos:station:USF.COMPS:ANC:1,2012-01-01T14:42:00Z,28.1930,-82.7890,18.67,1111122 
COMPS,ioos:station:USF.COMPS:ANC:1,2012-01-01T14:48:00Z,28.1930,-82.7890,18.96,1111122 
COMPS,ioos:station:USF.COMPS:ANC:1,2012-01-01T14:54:00Z,28.1930,-82.7890,19.36,1111122 
COMPS,ioos:station:USF.COMPS:ANC:1,2012-01-01T15:00:00Z,28.1930,-82.7890,19.4,1111122 
COMPS,ioos:station:USF.COMPS:ANC:1,2012-01-01T15:06:00Z,28.1930,-82.7890,20.04,1111122 
COMPS,ioos:station:USF.COMPS:ANC:1,2012-01-01T15:12:00Z,28.1930,-82.7890,20.12,1111122 
COMPS,ioos:station:USF.COMPS:ANC:1,2012-01-01T15:18:00Z,28.1930,-82.7890,20.73,1111122 
COMPS,ioos:station:USF.COMPS:ANC:1,2012-01-01T15:24:00Z,28.1930,-82.7890,20.69,1111122 
COMPS,ioos:station:USF.COMPS:ANC:1,2012-01-01T15:30:00Z,28.1930,-82.7890,20.85,1111122 
COMPS,ioos:station:USF.COMPS:ANC:1,2012-01-01T15:36:00Z,28.1930,-82.7890,21.07,1111122 
COMPS,ioos:station:USF.COMPS:ANC:1,2012-01-01T15:42:00Z,28.1930,-82.7890,21.24,1111122 
COMPS,ioos:station:USF.COMPS:ANC:1,2012-01-01T15:48:00Z,28.1930,-82.7890,21.82,1111122 
COMPS,ioos:station:USF.COMPS:ANC:1,2012-01-01T15:54:00Z,28.1930,-82.7890,21.88,1111122 
COMPS,ioos:station:USF.COMPS:ANC:1,2012-01-01T16:00:00Z,28.1930,-82.7890,21.9,1111122 
COMPS,ioos:station:USF.COMPS:ANC:1,2012-01-01T16:06:00Z,28.1930,-82.7890,20.51,1111122 
COMPS,ioos:station:USF.COMPS:ANC:1,2012-01-01T16:12:00Z,28.1930,-82.7890,20.66,1111122 
COMPS,ioos:station:USF.COMPS:ANC:1,2012-01-01T16:18:00Z,28.1930,-82.7890,20.55,1111122 
COMPS,ioos:station:USF.COMPS:ANC:1,2012-01-01T16:24:00Z,28.1930,-82.7890,20.12,1111122 
COMPS,ioos:station:USF.COMPS:ANC:1,2012-01-01T16:30:00Z,28.1930,-82.7890,20.01,1111122 
COMPS,ioos:station:USF.COMPS:ANC:1,2012-01-01T16:36:00Z,28.1930,-82.7890,19.98,1111122 
COMPS,ioos:station:USF.COMPS:ANC:1,2012-01-01T16:42:00Z,28.1930,-82.7890,20.39,1111122 
COMPS,ioos:station:USF.COMPS:ANC:1,2012-01-01T16:48:00Z,28.1930,-82.7890,20.67,1111122 
COMPS,ioos:station:USF.COMPS:ANC:1,2012-01-01T16:54:00Z,28.1930,-82.7890,20.3,1111122 
COMPS,ioos:station:USF.COMPS:ANC:1,2012-01-01T17:00:00Z,28.1930,-82.7890,20.3,1111122 
COMPS,ioos:station:USF.COMPS:ANC:1,2012-01-01T17:06:00Z,28.1930,-82.7890,20.19,1111122 
COMPS,ioos:station:USF.COMPS:ANC:1,2012-01-01T17:12:00Z,28.1930,-82.7890,20.31,1111122 
COMPS,ioos:station:USF.COMPS:ANC:1,2012-01-01T17:18:00Z,28.1930,-82.7890,20.46,1111122 
COMPS,ioos:station:USF.COMPS:ANC:1,2012-01-01T17:24:00Z,28.1930,-82.7890,20.54,1111122 
COMPS,ioos:station:USF.COMPS:ANC:1,2012-01-01T17:30:00Z,28.1930,-82.7890,20.54,1111122 
COMPS,ioos:station:USF.COMPS:ANC:1,2012-01-01T17:36:00Z,28.1930,-82.7890,20.6,1111122 
COMPS,ioos:station:USF.COMPS:ANC:1,2012-01-01T17:42:00Z,28.1930,-82.7890,20.75,1111122 
COMPS,ioos:station:USF.COMPS:ANC:1,2012-01-01T17:48:00Z,28.1930,-82.7890,20.85,1111122 
COMPS,ioos:station:USF.COMPS:ANC:1,2012-01-01T17:54:00Z,28.1930,-82.7890,20.91,1111122 
COMPS,ioos:station:USF.COMPS:ANC:1,2012-01-01T18:00:00Z,28.1930,-82.7890,20.9,1111122 
COMPS,ioos:station:USF.COMPS:ANC:1,2012-01-01T18:06:00Z,28.1930,-82.7890,20.76,1111122 
COMPS,ioos:station:USF.COMPS:ANC:1,2012-01-01T18:12:00Z,28.1930,-82.7890,20.68,1111122 
COMPS,ioos:station:USF.COMPS:ANC:1,2012-01-01T18:18:00Z,28.1930,-82.7890,20.67,1111122 
COMPS,ioos:station:USF.COMPS:ANC:1,2012-01-01T18:24:00Z,28.1930,-82.7890,20.74,1111122 
COMPS,ioos:station:USF.COMPS:ANC:1,2012-01-01T18:30:00Z,28.1930,-82.7890,20.77,1111122 
COMPS,ioos:station:USF.COMPS:ANC:1,2012-01-01T18:36:00Z,28.1930,-82.7890,20.86,1111122 
COMPS,ioos:station:USF.COMPS:ANC:1,2012-01-01T18:42:00Z,28.1930,-82.7890,20.85,1111122 
COMPS,ioos:station:USF.COMPS:ANC:1,2012-01-01T18:48:00Z,28.1930,-82.7890,20.69,1111122 
COMPS,ioos:station:USF.COMPS:ANC:1,2012-01-01T18:54:00Z,28.1930,-82.7890,20.57,1111122 
COMPS,ioos:station:USF.COMPS:ANC:1,2012-01-01T19:00:00Z,28.1930,-82.7890,20.6,1111122 
COMPS,ioos:station:USF.COMPS:ANC:1,2012-01-01T19:06:00Z,28.1930,-82.7890,20.54,1111122 
COMPS,ioos:station:USF.COMPS:ANC:1,2012-01-01T19:12:00Z,28.1930,-82.7890,20.6,1111122 
COMPS,ioos:station:USF.COMPS:ANC:1,2012-01-01T19:18:00Z,28.1930,-82.7890,20.57,1111122 
COMPS,ioos:station:USF.COMPS:ANC:1,2012-01-01T19:24:00Z,28.1930,-82.7890,20.74,1111122 
COMPS,ioos:station:USF.COMPS:ANC:1,2012-01-01T19:30:00Z,28.1930,-82.7890,20.91,1111122 
COMPS,ioos:station:USF.COMPS:ANC:1,2012-01-01T19:36:00Z,28.1930,-82.7890,20.91,1111122 
COMPS,ioos:station:USF.COMPS:ANC:1,2012-01-01T19:42:00Z,28.1930,-82.7890,21.0,1111122 
COMPS,ioos:station:USF.COMPS:ANC:1,2012-01-01T19:48:00Z,28.1930,-82.7890,21.17,1111122 
COMPS,ioos:station:USF.COMPS:ANC:1,2012-01-01T19:54:00Z,28.1930,-82.7890,21.37,1111122 
COMPS,ioos:station:USF.COMPS:ANC:1,2012-01-01T20:00:00Z,28.1930,-82.7890,21.4,1111122 
COMPS,ioos:station:USF.COMPS:ANC:1,2012-01-01T20:06:00Z,28.1930,-82.7890,21.41,1111122 
COMPS,ioos:station:USF.COMPS:ANC:1,2012-01-01T20:12:00Z,28.1930,-82.7890,21.01,1111122 
COMPS,ioos:station:USF.COMPS:ANC:1,2012-01-01T20:18:00Z,28.1930,-82.7890,20.89,1111122 
COMPS,ioos:station:USF.COMPS:ANC:1,2012-01-01T20:24:00Z,28.1930,-82.7890,20.77,1111122 
COMPS,ioos:station:USF.COMPS:ANC:1,2012-01-01T20:30:00Z,28.1930,-82.7890,20.68,1111122 
COMPS,ioos:station:USF.COMPS:ANC:1,2012-01-01T20:36:00Z,28.1930,-82.7890,20.62,1111122 
COMPS,ioos:station:USF.COMPS:ANC:1,2012-01-01T20:42:00Z,28.1930,-82.7890,20.4,1111122 
COMPS,ioos:station:USF.COMPS:ANC:1,2012-01-01T20:48:00Z,28.1930,-82.7890,20.27,1111122 
COMPS,ioos:station:USF.COMPS:ANC:1,2012-01-01T20:54:00Z,28.1930,-82.7890,20.28,1111122 
COMPS,ioos:station:USF.COMPS:ANC:1,2012-01-01T21:00:00Z,28.1930,-82.7890,20.3,1111122 
COMPS,ioos:station:USF.COMPS:ANC:1,2012-01-01T21:06:00Z,28.1930,-82.7890,20.43,1111122 
COMPS,ioos:station:USF.COMPS:ANC:1,2012-01-01T21:12:00Z,28.1930,-82.7890,20.39,1111122 
COMPS,ioos:station:USF.COMPS:ANC:1,2012-01-01T21:18:00Z,28.1930,-82.7890,20.43,1111122 
COMPS,ioos:station:USF.COMPS:ANC:1,2012-01-01T21:24:00Z,28.1930,-82.7890,20.43,1111122 
COMPS,ioos:station:USF.COMPS:ANC:1,2012-01-01T21:30:00Z,28.1930,-82.7890,20.41,1111122 
COMPS,ioos:station:USF.COMPS:ANC:1,2012-01-01T21:36:00Z,28.1930,-82.7890,20.4,1111122 
COMPS,ioos:station:USF.COMPS:ANC:1,2012-01-01T21:42:00Z,28.1930,-82.7890,20.33,1111122 
COMPS,ioos:station:USF.COMPS:ANC:1,2012-01-01T21:48:00Z,28.1930,-82.7890,20.27,1111122 
COMPS,ioos:station:USF.COMPS:ANC:1,2012-01-01T21:54:00Z,28.1930,-82.7890,20.35,1111122 
COMPS,ioos:station:USF.COMPS:ANC:1,2012-01-01T22:00:00Z,28.1930,-82.7890,20.4,1111122 
COMPS,ioos:station:USF.COMPS:ANC:1,2012-01-01T22:06:00Z,28.1930,-82.7890,20.25,1111122 
COMPS,ioos:station:USF.COMPS:ANC:1,2012-01-01T22:12:00Z,28.1930,-82.7890,20.22,1111122 
COMPS,ioos:station:USF.COMPS:ANC:1,2012-01-01T22:18:00Z,28.1930,-82.7890,20.19,1111122 
COMPS,ioos:station:USF.COMPS:ANC:1,2012-01-01T22:24:00Z,28.1930,-82.7890,20.28,1111122 
COMPS,ioos:station:USF.COMPS:ANC:1,2012-01-01T22:30:00Z,28.1930,-82.7890,20.27,1111122 
COMPS,ioos:station:USF.COMPS:ANC:1,2012-01-01T22:36:00Z,28.1930,-82.7890,20.17,1111122 
COMPS,ioos:station:USF.COMPS:ANC:1,2012-01-01T22:42:00Z,28.1930,-82.7890,19.96,1111122 
COMPS,ioos:station:USF.COMPS:ANC:1,2012-01-01T22:48:00Z,28.1930,-82.7890,19.74,1111122 
COMPS,ioos:station:USF.COMPS:ANC:1,2012-01-01T22:54:00Z,28.1930,-82.7890,19.65,1111122 
COMPS,ioos:station:USF.COMPS:ANC:1,2012-01-01T23:00:00Z,28.1930,-82.7890,19.7,1111122 
COMPS,ioos:station:USF.COMPS:ANC:1,2012-01-01T23:06:00Z,28.1930,-82.7890,19.48,1111122 
COMPS,ioos:station:USF.COMPS:ANC:1,2012-01-01T23:12:00Z,28.1930,-82.7890,19.31,1111122 
COMPS,ioos:station:USF.COMPS:ANC:1,2012-01-01T23:18:00Z,28.1930,-82.7890,19.23,1111122 
COMPS,ioos:station:USF.COMPS:ANC:1,2012-01-01T23:24:00Z,28.1930,-82.7890,19.19,1111122 
COMPS,ioos:station:USF.COMPS:ANC:1,2012-01-01T23:30:00Z,28.1930,-82.7890,19.18,1111122 
COMPS,ioos:station:USF.COMPS:ANC:1,2012-01-01T23:36:00Z,28.1930,-82.7890,19.18,1111122 
COMPS,ioos:station:USF.COMPS:ANC:1,2012-01-01T23:42:00Z,28.1930,-82.7890,19.18,1111122 
COMPS,ioos:station:USF.COMPS:ANC:1,2012-01-01T23:48:00Z,28.1930,-82.7890,19.22,1111122 
COMPS,ioos:station:USF.COMPS:ANC:1,2012-01-01T23:54:00Z,28.1930,-82.7890,19.25,1111122 
COMPS,ioos:station:USF.COMPS:ANC:1,2012-01-02T00:00:00Z,28.1930,-82.7890,19.3,1111122 
COMPS,ioos:station:USF.COMPS:ANC:1,2012-01-02T00:06:00Z,28.1930,-82.7890,19.12,1111122 
COMPS,ioos:station:USF.COMPS:ANC:1,2012-01-02T00:12:00Z,28.1930,-82.7890,19.04,1111122 
COMPS,ioos:station:USF.COMPS:ANC:1,2012-01-02T00:18:00Z,28.1930,-82.7890,19.07,1111122 
COMPS,ioos:station:USF.COMPS:ANC:1,2012-01-02T00:24:00Z,28.1930,-82.7890,19.16,1111122 
COMPS,ioos:station:USF.COMPS:ANC:1,2012-01-02T00:30:00Z,28.1930,-82.7890,19.18,1111122 
COMPS,ioos:station:USF.COMPS:ANC:1,2012-01-02T00:36:00Z,28.1930,-82.7890,19.09,1111122 
COMPS,ioos:station:USF.COMPS:ANC:1,2012-01-02T00:42:00Z,28.1930,-82.7890,18.99,1111122 
COMPS,ioos:station:USF.COMPS:ANC:1,2012-01-02T00:48:00Z,28.1930,-82.7890,18.92,1111122 
COMPS,ioos:station:USF.COMPS:ANC:1,2012-01-02T00:54:00Z,28.1930,-82.7890,18.97,1111122 
COMPS,ioos:station:USF.COMPS:ANC:1,2012-01-02T01:00:00Z,28.1930,-82.7890,19.0,1111122 
COMPS,ioos:station:USF.COMPS:ANC:1,2012-01-02T01:06:00Z,28.1930,-82.7890,19.09,1111122 
COMPS,ioos:station:USF.COMPS:ANC:1,2012-01-02T01:12:00Z,28.1930,-82.7890,18.97,1111122 
COMPS,ioos:station:USF.COMPS:ANC:1,2012-01-02T01:18:00Z,28.1930,-82.7890,18.86,1111122 
COMPS,ioos:station:USF.COMPS:ANC:1,2012-01-02T01:24:00Z,28.1930,-82.7890,18.79,1111122 
COMPS,ioos:station:USF.COMPS:ANC:1,2012-01-02T01:30:00Z,28.1930,-82.7890,18.71,1111122 
COMPS,ioos:station:USF.COMPS:ANC:1,2012-01-02T01:36:00Z,28.1930,-82.7890,18.77,1111122 
COMPS,ioos:station:USF.COMPS:ANC:1,2012-01-02T01:42:00Z,28.1930,-82.7890,18.78,1111122 
COMPS,ioos:station:USF.COMPS:ANC:1,2012-01-02T01:48:00Z,28.1930,-82.7890,18.86,1111122 
COMPS,ioos:station:USF.COMPS:ANC:1,2012-01-02T01:54:00Z,28.1930,-82.7890,18.84,1111122 
COMPS,ioos:station:USF.COMPS:ANC:1,2012-01-02T02:00:00Z,28.1930,-82.7890,18.8,1111122 
COMPS,ioos:station:USF.COMPS:ANC:1,2012-01-02T02:06:00Z,28.1930,-82.7890,18.69,1111122 
COMPS,ioos:station:USF.COMPS:ANC:1,2012-01-02T02:12:00Z,28.1930,-82.7890,18.64,1111122 
COMPS,ioos:station:USF.COMPS:ANC:1,2012-01-02T02:18:00Z,28.1930,-82.7890,18.67,1111122 
COMPS,ioos:station:USF.COMPS:ANC:1,2012-01-02T02:24:00Z,28.1930,-82.7890,18.78,1111122 
COMPS,ioos:station:USF.COMPS:ANC:1,2012-01-02T02:30:00Z,28.1930,-82.7890,18.73,1111122 
COMPS,ioos:station:USF.COMPS:ANC:1,2012-01-02T02:36:00Z,28.1930,-82.7890,18.72,1111122 
COMPS,ioos:station:USF.COMPS:ANC:1,2012-01-02T02:42:00Z,28.1930,-82.7890,18.77,1111122 
COMPS,ioos:station:USF.COMPS:ANC:1,2012-01-02T02:48:00Z,28.1930,-82.7890,19.12,1111122 
COMPS,ioos:station:USF.COMPS:ANC:1,2012-01-02T02:54:00Z,28.1930,-82.7890,19.11,1111122 
COMPS,ioos:station:USF.COMPS:ANC:1,2012-01-02T03:00:00Z,28.1930,-82.7890,19.1,1111122 
COMPS,ioos:station:USF.COMPS:ANC:1,2012-01-02T03:06:00Z,28.1930,-82.7890,18.92,1111122 